This is the latest recevied weather packets stored in our database for station/object F5MAP-5. If no packets are shown the sender has not sent any weather packets the latest 10 day(s).
| Time | Temp. | Humidity | Pressure | Rain* | Wind** | Luminosity | Snow |
|---|---|---|---|---|---|---|---|
| 1777962135 | 12.78° C | 94% | 1009.9 hPa | 0 mm | - | 47 W/m² | - |
| 1777961535 | 12.22° C | 93% | 1010.1 hPa | 0 mm | - | 56 W/m² | - |
| 1777960935 | 12.22° C | 93% | 1010 hPa | 0 mm | - | 40 W/m² | - |
| 1777960335 | 12.22° C | 93% | 1010.1 hPa | 0 mm | - | 39 W/m² | - |
| 1777959735 | 11.67° C | 93% | 1010.1 hPa | 0 mm | - | 21 W/m² | - |
| 1777959135 | 11.67° C | 93% | 1010.2 hPa | 0 mm | - | 14 W/m² | - |
| 1777958535 | 11.67° C | 93% | 1010.1 hPa | 0 mm | - | 12 W/m² | - |
| 1777957935 | 11.67° C | 93% | 1010 hPa | 0 mm | - | 16 W/m² | - |
| 1777957335 | 11.67° C | 93% | 1010.1 hPa | 0 mm | - | 14 W/m² | - |
| 1777956737 | 11.67° C | 93% | 1010.1 hPa | 0 mm | - | 16 W/m² | - |
| 1777956136 | 11.67° C | 93% | 1010.1 hPa | 0 mm | - | 11 W/m² | - |
| 1777955535 | 11.67° C | 93% | 1010 hPa | 0 mm | - | 5 W/m² | - |
| 1777954935 | 11.67° C | 93% | 1010 hPa | 0 mm | - | 0 W/m² | - |
| 1777954335 | 11.67° C | 93% | 1010 hPa | 0 mm | - | 0 W/m² | - |
| 1777953735 | 11.67° C | 92% | 1010.1 hPa | 0 mm | - | 0 W/m² | - |
| 1777953135 | 11.67° C | 92% | 1010.3 hPa | 0 mm | - | 0 W/m² | - |
| 1777952535 | 11.67° C | 93% | 1010.2 hPa | 0 mm | - | 0 W/m² | - |
| 1777951936 | 11.11° C | 92% | 1010.2 hPa | 0 mm | - | 0 W/m² | - |
| 1777951334 | 11.11° C | 92% | 1010.1 hPa | 0 mm | - | 0 W/m² | - |
| 1777950734 | 11.11° C | 92% | 1010.1 hPa | 0 mm | - | 0 W/m² | - |
| 1777950134 | 11.11° C | 92% | 1010.2 hPa | 0 mm | - | 0 W/m² | - |
| 1777949535 | 11.67° C | 92% | 1010.3 hPa | 0 mm | - | 0 W/m² | - |
| 1777948934 | 11.11° C | 92% | 1010.3 hPa | 0 mm | - | 0 W/m² | - |
| 1777948334 | 11.11° C | 92% | 1010.3 hPa | 0 mm | - | 0 W/m² | - |
| 1777947734 | 11.11° C | 92% | 1010.4 hPa | 0 mm | - | 0 W/m² | - |
* Rain latest hour (hover to see other rain measurements)
** Current wind speed in m/s (hover to see current wind gust speed)